User: anonymous   Login
Location: Ertinghausen
(51.6624°N, 9.7874°E)
Time: 21:01:31
(UTC+00:00)
Language:

Cosmos 1346 Rocket - Orbit

View from above orbital plane
View from above orbital plane
View from above satellite
View from above satellite

Ground track
Ground track

The orbit data is extracted from the following two-line orbital elements,

1 13121U 82027B   24197.56044560  .00006550  00000-0  32541-3 0  9994
2 13121  81.1923  23.8578 0010999 145.7984 214.3956 15.17473922307172
Epoch (UTC): 15 July 2024 13:27:02
Eccentricity: 0.0010999
inclination: 81.1923°
perigee height: 506 km
apogee height: 521 km
right ascension of ascending node: 23.8578°
argument of perigee: 145.7984°
revolutions per day: 15.17473922
mean anomaly at epoch: 214.3956°
orbit number at epoch: 30717

The dashed part of the orbit path shows where the satellite is in the earth's shadow,  

DLR